Dewpoint
65 64 66 64 64 64 68 66 67 67 65 65 65 64 61 60 58 57 56 57 58 60 61 58 62 66 65 65 65 66 64 64 66 67 66 62 62 64 66 66 66 66 66 66 65 66 66 66 66 67 67 67 67 66 66 66 66 66 67 66 66 65 65 65 65 65 64 65 65 65 65 65 65 65
65 65 64 64 64 65 65 64 63 66 64 64 64 64 64 63 60 58 56 57 59 60 61 60 60 65 64 66 65 65 63 66 66 65 65 63 63 64 65 65 65 65 65 65 65 65 65 65 65 65 65 65 66 66 67 66 66 66 66 66 66 66 65 65 65 65 65 65 65 65 65 65 65 65
66 65 64 65 63 65 64 64 64 65 65 65 64 64 64 64 62 61 59 57 60 61 59 62 63 62 64 65 64 65 65 66 66 64 63 63 65 66 65 65 65 65 64 64 64 64 64 64 64 64 64 64 65 66 66 66 66 66 66 66 66 66 66 65 65 64 65 65 65 65 65 65 65 65
66 66 65 65 65 66 65 64 64 65 65 65 65 64 64 64 64 62 60 59 59 62 61 62 63 63 63 63 63 63 63 65 69 65 63 63 66 64 63 65 64 63 63 63 63 63 62 63 64 64 64 64 65 66 65 65 65 65 66 66 66 66 66 65 64 65 65 65 65 65 64 64 64 64
65 65 65 64 66 66 63 64 65 64 65 65 65 65 65 64 65 63 62 61 61 62 64 64 64 65 64 62 62 61 63 63 63 65 64 64 64 63 63 63 64 64 63 62 62 62 62 63 63 64 64 64 65 65 65 65 64 64 64 64 64 64 65 64 63 64 64 64 65 65 65 65 65 64
65 65 65 65 65 66 64 64 64 63 64 65 64 64 64 64 64 65 63 62 61 61 61 62 64 64 65 63 64 62 61 62 64 64 63 64 64 63 63 62 63 64 63 62 61 62 61 62 62 63 63 64 64 64 64 64 63 63 63 62 63 63 62 62 62 63 64 64 65 65 64 64 65 65
65 65 65 64 64 65 64 65 65 65 64 64 63 63 64 63 63 64 64 62 61 61 60 62 62 63 63 63 62 63 64 64 64 63 64 64 64 65 64 63 63 64 63 63 62 61 61 61 61 61 62 63 62 62 62 62 62 61 61 61 62 62 61 61 61 62 62 63 64 64 64 64 64 64
65 65 65 65 64 65 63 64 64 64 64 64 63 62 63 63 63 63 64 64 61 61 60 61 62 62 62 63 63 64 65 64 63 63 63 64 64 64 64 63 63 63 63 63 62 61 61 60 60 60 60 60 60 59 59 60 60 60 60 60 60 60 60 60 60 61 61 61 62 63 63 63 63 62
65 65 65 65 64 64 64 64 64 64 63 64 64 63 63 63 63 63 63 63 63 61 60 60 61 63 63 63 63 64 63 63 63 64 64 63 63 63 63 64 65 64 63 63 62 61 61 60 60 60 60 60 59 59 58 58 58 59 59 59 59 59 59 59 58 59 59 59 60 60 60 61 61 62
65 64 65 65 64 64 63 63 64 64 64 64 63 63 63 64 64 63 63 63 62 61 61 60 61 61 62 61 62 63 63 62 61 61 62 63 64 64 63 63 64 64 63 62 62 62 62 62 61 60 60 60 59 59 58 58 57 57 57 56 55 57 57 58 58 58 58 58 59 59 59 60 60 60
65 64 65 65 65 64 64 64 64 64 64 64 64 64 63 63 63 63 63 63 62 62 62 62 62 62 62 62 61 62 63 63 62 61 60 60 62 62 62 61 62 63 63 63 63 62 61 61 61 59 59 59 59 59 59 58 57 57 56 55 54 54 55 55 56 57 57 57 57 57 57 57 59 60
65 65 65 65 65 65 64 64 64 64 64 64 63 63 63 63 63 62 62 62 62 61 61 60 60 60 60 59 61 62 60 59 60 62 62 61 60 61 61 62 62 63 62 62 61 62 62 61 61 59 59 60 60 59 59 60 60 59 57 56 57 57 55 55 55 55 55 55 55 55 55 55 57 57
65 64 64 64 65 66 68 68 67 67 67 64 63 63 63 63 63 62 62 62 61 60 61 61 60 59 59 59 58 58 57 57 58 59 61 61 60 60 61 61 62 62 61 61 62 61 61 60 60 60 60 60 62 61 62 61 62 61 58 57 57 57 57 56 56 56 55 55 55 54 54 55 56 57
64 64 64 65 68 68 69 69 68 66 67 67 64 62 63 63 63 62 61 61 61 60 59 59 59 58 58 57 57 57 57 58 59 58 58 57 58 58 59 59 60 61 61 60 60 60 61 61 60 60 59 60 61 61 60 59 58 58 57 57 58 58 58 57 56 56 55 55 55 54 54 54 55 56
64 64 64 66 68 68 69 68 69 69 68 67 67 66 66 66 64 63 62 61 61 60 60 60 59 59 58 57 57 57 58 59 59 58 58 59 58 57 57 56 58 61 60 59 58 58 59 59 58 58 59 59 59 58 57 58 59 57 57 57 57 57 57 57 57 57 55 55 54 54 54 54 55 55
64 64 66 65 65 65 65 65 65 68 68 67 66 66 65 65 65 64 63 61 61 60 60 59 59 58 58 57 57 58 58 58 58 58 58 58 58 57 56 56 56 58 60 57 56 55 55 56 56 55 56 56 56 56 56 57 58 57 57 57 57 57 57 56 57 57 57 57 56 57 56 56 56 55
64 66 65 64 65 65 66 67 66 65 66 67 66 65 65 65 63 62 62 62 63 61 60 60 59 59 58 57 58 59 60 59 57 57 58 58 57 57 57 56 56 57 58 56 54 53 54 54 54 54 55 56 56 56 57 58 58 58 57 57 57 57 56 56 56 56 56 56 55 55 55 55 55 55
66 66 64 64 64 66 66 66 67 66 65 64 64 64 64 64 66 63 60 60 60 61 62 61 60 60 60 59 59 61 60 59 58 57 57 57 56 56 56 56 56 55 57 55 54 53 53 54 55 54 54 55 55 56 57 57 57 57 57 56 56 56 56 55 55 55 55 54 53 53 53 53 53 53
64 65 66 65 65 65 65 65 67 67 66 66 66 65 65 65 64 64 64 63 63 62 62 62 61 61 61 61 60 60 62 60 59 58 57 56 55 55 55 56 56 56 57 56 55 53 53 53 53 53 54 55 55 56 56 56 56 56 55 55 55 54 53 53 53 52 52 52 52 52 52 52 52 52
64 63 64 66 65 65 65 65 65 68 67 66 65 64 63 63 64 64 64 62 62 63 62 62 61 61 61 61 62 62 61 59 58 59 59 57 56 55 54 53 54 54 55 55 54 52 51 51 50 51 53 52 51 52 52 53 52 51 51 52 52 52 51 51 52 52 52 53 53 52 52 50 50 50
63 63 64 66 65 64 64 63 61 63 69 66 65 64 63 63 62 62 63 60 59 58 56 57 59 59 58 56 56 55 55 56 56 55 54 54 54 52 52 52 52 52 53 54 53 51 50 51 50 48 48 48 47 47 46 47 50 50 50 50 51 51 52 52 52 53 53 53 53 53 53 51 51 51
62 62 66 68 65 64 64 61 60 62 66 65 64 63 62 61 61 61 61 61 62 59 57 56 55 55 55 55 54 54 53 53 54 54 52 52 53 53 54 52 53 52 53 54 53 47 48 48 47 45 44 46 46 47 46 47 48 51 50 51 53 53 53 53 53 53 53 53 53 53 52 51 51 53
63 63 66 68 67 65 64 60 59 60 65 64 62 62 61 61 60 60 61 60 59 59 59 58 59 60 59 59 58 59 56 55 56 56 54 54 54 53 53 53 54 53 54 55 49 45 45 44 45 45 45 44 46 48 48 49 50 51 52 54 54 54 55 54 53 52 52 53 53 53 52 51 51 54
62 64 66 66 63 62 60 57 56 57 59 61 62 62 60 59 59 59 58 59 59 58 58 57 58 59 59 59 59 59 60 61 61 60 58 56 55 55 54 55 55 53 50 50 49 47 45 45 46 47 47 46 45 48 50 49 50 52 53 54 54 55 56 56 54 53 52 52 52 52 51 50 51 53
62 64 66 66 62 58 55 54 53 54 57 60 61 60 59 59 59 56 57 58 60 57 57 58 58 57 58 57 57 57 56 57 56 57 56 59 58 57 56 50 48 47 47 48 52 48 47 48 47 48 48 48 48 48 48 49 51 52 54 54 54 55 56 56 55 55 53 52 51 50 50 51 51 53
64 65 66 66 60 54 54 53 51 51 54 56 58 58 55 52 54 56 57 56 56 56 57 56 56 56 55 55 55 55 55 55 57 53 52 51 51 51 50 49 48 47 47 48 52 49 48 48 48 48 48 48 47 49 48 49 51 53 54 55 55 55 56 55 55 54 54 54 54 53 54 53 53 53
65 66 66 65 57 52 50 49 49 50 51 53 55 51 50 52 54 56 56 56 57 55 55 56 55 55 55 55 55 55 54 54 54 51 50 50 50 51 52 52 50 49 49 49 52 53 51 50 51 49 48 47 48 49 50 50 51 54 55 55 55 55 55 54 54 54 54 54 55 53 53 53 53 54
66 65 63 58 52 49 45 47 49 50 52 54 49 49 51 53 54 55 55 55 56 55 55 55 55 55 55 55 53 54 55 53 52 52 52 51 51 50 50 50 51 52 52 52 52 51 51 49 47 47 48 48 50 50 50 52 54 54 54 54 54 54 55 55 54 55 55 56 56 56 56 56 57 57
63 58 50 47 48 47 46 47 49 50 51 51 49 49 51 56 55 55 55 55 55 54 54 55 55 55 56 52 51 53 53 54 52 51 50 50 51 51 51 51 53 54 54 52 47 45 45 45 45 46 47 49 51 51 53 53 54 53 54 53 53 54 55 55 55 55 56 56 55 56 56 56 55 56
51 49 48 48 48 48 49 52 54 54 54 51 52 52 54 55 55 56 55 55 55 54 55 55 55 55 52 52 53 54 52 50 49 50 51 51 52 51 50 48 47 47 47 47 47 45 45 46 47 48 49 50 52 53 54 54 53 53 54 55 55 56 56 55 54 54 55 55 55 55 55 55 55 55
53 51 52 52 52 53 53 55 56 56 56 54 52 53 54 54 55 55 55 55 55 55 54 55 55 53 51 52 52 51 50 50 51 52 53 51 48 48 48 47 46 45 45 45 46 46 47 47 49 51 52 52 54 55 55 54 54 54 54 55 56 54 54 54 54 54 54 54 54 54 54 54 54 56
57 56 55 53 55 55 54 54 55 56 57 56 54 53 54 54 56 57 58 58 55 54 55 54 52 52 52 51 50 51 50 49 50 50 50 49 47 49 48 45 43 43 43 45 46 49 55 54 50 47 48 51 53 54 54 54 54 54 54 55 55 54 54 53 53 53 54 54 53 53 53 53 53 54
58 56 55 55 55 56 56 54 54 55 56 57 56 55 55 55 55 55 55 55 55 54 54 54 52 53 50 48 49 50 48 49 48 47 47 48 48 45 44 43 44 45 45 44 46 46 45 44 48 49 51 53 55 55 55 53 53 52 52 53 53 53 53 53 53 53 53 53 53 53 52 53 53 54
56 56 55 55 54 56 56 55 55 54 54 55 56 56 56 56 55 55 55 54 54 54 55 53 51 49 49 47 48 48 47 45 45 45 48 45 44 43 43 44 44 45 47 46 44 42 43 44 44 44 46 52 56 55 55 54 53 52 53 53 53 52 53 53 54 53 53 53 53 52 52 52 53 54
57 56 56 56 56 56 56 56 55 55 54 54 55 55 56 56 55 54 53 52 51 50 49 49 49 48 47 47 47 44 45 45 45 45 45 45 46 45 45 43 42 45 45 44 42 42 42 42 41 41 43 49 51 51 56 55 53 53 53 52 53 53 53 54 54 53 53 53 53 53 52 51 52 54
57 58 57 57 56 56 55 55 56 56 55 54 55 55 55 55 54 52 48 50 49 49 48 47 47 48 47 46 46 45 45 46 43 41 41 42 43 44 44 44 47 46 43 42 42 42 41 41 41 42 46 49 48 46 46 55 57 54 53 53 53 54 54 54 54 53 52 52 53 52 51 51 51 54
57 57 57 55 54 54 53 53 52 52 50 50 51 50 51 51 49 48 49 49 48 48 47 47 47 46 46 45 45 44 43 41 38 40 41 42 43 43 43 45 44 43 42 42 42 42 42 42 43 45 48 49 46 45 46 48 50 54 54 54 54 54 54 54 53 52 51 52 52 52 52 52 52 53
56 56 55 53 53 54 52 51 53 53 52 52 50 49 49 51 51 50 51 47 45 45 46 44 44 43 42 42 38 38 38 40 42 43 44 42 41 41 42 40 39 41 41 42 43 43 44 43 42 44 48 47 46 45 45 47 50 52 53 50 53 54 54 53 51 50 50 51 51 51 52 52 52 52
54 55 54 53 54 53 52 52 52 52 52 51 49 49 49 48 48 48 47 46 45 44 43 43 42 42 41 39 40 39 39 41 42 42 41 39 41 40 39 38 39 41 42 42 42 42 42 41 42 46 48 47 46 46 48 50 51 54 54 52 54 53 53 52 51 50 50 49 50 51 52 52 52 53
54 54 53 53 54 53 52 52 50 50 51 51 50 49 49 49 48 47 48 48 46 46 45 43 43 41 39 41 41 41 42 42 42 39 40 41 41 41 38 40 41 42 42 42 41 40 40 41 44 45 46 46 47 48 53 55 55 55 54 53 49 51 52 51 50 50 50 50 50 50 49 49 48 50
53 52 54 54 53 53 51 49 49 50 50 50 50 51 51 49 48 48 48 48 49 44 44 43 43 41 40 40 42 43 40 41 39 39 43 41 39 39 41 44 42 41 41 40 39 39 39 41 45 48 50 46 46 52 54 50 49 50 51 52 49 49 48 49 50 50 49 50 50 49 48 47 47 48
53 53 55 53 52 52 52 50 49 48 49 50 49 48 47 50 50 50 48 47 45 47 45 44 43 44 44 44 42 43 39 38 38 39 41 37 36 38 42 41 40 40 40 39 38 38 40 43 44 43 42 44 48 51 49 50 50 50 50 51 50 49 49 49 49 49 49 50 49 48 47 47 47 46
55 54 51 52 52 52 52 51 49 50 50 49 49 48 47 45 45 46 42 41 42 44 45 45 43 43 43 43 42 39 38 38 38 37 37 37 39 39 38 39 41 40 40 40 40 42 41 40 40 40 41 44 49 51 50 50 50 50 50 49 48 48 49 49 49 48 48 49 49 49 49 47 46 44
52 52 52 52 53 52 50 51 52 49 48 48 49 47 45 45 44 41 41 40 41 40 40 44 43 41 43 41 39 37 38 38 39 38 38 40 40 38 39 41 41 40 40 40 40 39 39 38 38 41 41 45 50 50 49 50 50 50 49 48 48 47 47 48 48 47 48 48 48 48 49 49 48 48
51 51 52 53 53 51 50 51 50 49 50 48 46 45 43 43 43 41 41 43 43 44 43 41 42 41 39 39 37 37 38 42 41 40 42 40 37 38 41 41 40 40 39 38 39 38 37 37 39 40 44 49 50 49 51 52 51 50 48 47 47 47 47 47 46 45 46 47 47 48 48 48 48 48